RH
74 65 62 41 32 36 45 41 62 51 51 47 36 45 53 69 74 78 83 77 75 80 82 79 80 78 76 75 74 77 78 81 82 77 75 73 77 77 72 67 68 66 66 67 70 72 74 75 73
79 42 47 42 33 38 35 53 51 50 45 40 36 47 51 67 84 89 86 75 74 76 80 84 79 77 75 75 75 77 75 75 77 76 73 70 74 75 69 69 66 70 73 73 74 74 77 78 78
53 40 38 38 36 36 41 46 52 43 37 38 46 41 53 77 79 85 84 76 82 87 87 84 80 78 76 75 76 76 75 74 73 74 72 72 67 68 72 72 74 75 75 76 76 75 75 77 76
34 43 34 24 26 26 33 50 41 33 35 34 38 56 65 72 80 84 77 79 81 88 88 88 82 77 78 81 78 75 71 71 72 71 71 70 71 72 77 78 79 77 75 73 75 75 74 74 73
44 38 36 29 25 24 24 20 23 27 38 39 34 52 74 84 82 83 82 77 80 93 90 87 80 80 79 74 70 70 70 74 73 71 69 69 70 68 71 79 77 75 72 70 70 72 72 72 71
46 32 35 32 25 23 33 21 19 25 31 35 32 73 79 84 83 88 84 83 81 82 79 80 80 81 85 83 81 79 77 74 72 73 70 69 71 69 73 77 75 73 71 70 68 69 70 70 69
40 38 32 29 23 30 22 23 24 23 27 33 28 54 81 89 85 84 87 83 81 74 74 85 83 86 89 88 88 85 81 80 78 78 76 75 75 76 74 78 78 76 75 76 76 73 74 75 74
41 36 28 31 23 28 23 22 21 22 24 26 25 51 81 84 82 84 87 87 80 84 83 82 84 88 91 95 89 89 88 86 85 84 84 87 91 89 84 87 83 79 82 79 81 77 76 77 78
37 37 32 25 26 26 25 26 23 23 24 22 31 51 61 82 84 87 88 90 80 82 86 85 86 91 90 93 91 90 87 85 86 90 95 93 96 92 90 94 94 87 83 82 81 80 83 85 88
42 37 26 25 27 28 29 26 27 24 25 24 38 75 84 81 88 90 89 93 91 88 82 80 84 85 86 82 94 94 93 97 95 93 94 97 95 95 90 93 95 90 90 88 83 83 82 89 95
38 30 24 29 32 33 30 29 28 25 26 22 23 66 79 83 86 90 91 91 91 88 90 84 80 81 82 93 97 98 98 98 97 94 96 95 96 97 98 97 98 97 94 97 95 91 92 91 94
27 31 27 32 33 31 30 30 28 27 23 24 21 46 56 58 68 71 74 83 88 89 88 85 82 82 91 96 97 97 97 97 98 97 97 98 99 98 98 99 98 97 98 94 95 96 92 89 77
33 32 31 34 32 30 32 32 30 28 25 27 22 27 35 43 52 54 61 81 91 87 80 78 83 82 83 86 91 96 98 98 96 95 92 97 99 98 98 98 97 96 94 96 93 91 86 71 65
35 34 32 31 30 33 34 36 36 28 30 24 23 23 23 25 27 34 58 87 91 82 77 75 81 76 76 83 86 90 95 94 92 92 90 86 90 95 93 90 87 84 87 85 88 87 88 88 82
33 38 35 33 34 34 36 39 37 30 25 22 23 23 25 24 29 28 50 82 85 77 73 74 79 76 75 77 82 86 88 84 87 86 82 85 82 79 83 89 87 83 78 76 76 75 75 75 76
40 44 55 40 38 39 35 31 32 31 24 23 24 25 24 26 27 30 36 72 83 78 71 74 65 75 77 77 79 75 81 85 85 82 81 74 75 83 88 88 84 83 80 82 83 83 80 78 77
57 55 53 42 38 38 40 36 31 31 24 26 29 26 28 30 32 34 34 63 78 72 71 77 75 76 76 77 80 78 76 81 84 84 81 74 71 72 82 85 86 84 85 86 84 87 85 78 74
63 54 45 46 42 42 42 40 34 32 36 33 30 29 32 34 33 34 39 51 74 72 71 75 78 77 78 84 84 84 81 85 83 82 78 74 76 74 82 83 79 81 85 86 88 87 89 86 84
44 52 51 45 42 46 46 47 37 36 39 35 32 36 39 36 36 38 36 66 73 73 72 77 79 81 84 87 88 84 85 89 87 84 78 78 77 77 80 84 82 80 79 80 80 86 86 86 91
45 53 51 47 42 48 48 45 35 42 44 39 33 38 38 40 44 40 40 44 71 73 72 78 76 79 80 82 85 81 86 88 88 87 84 80 80 79 79 84 84 82 83 83 83 83 86 89 89
52 55 56 51 51 53 49 44 38 37 37 41 34 36 38 39 41 42 42 40 58 76 77 74 74 76 79 79 84 87 87 90 92 92 91 87 83 83 83 85 87 89 88 87 88 86 83 88 86
54 43 46 56 64 67 53 53 39 45 35 36 32 35 39 43 45 48 47 48 48 74 74 71 73 76 76 79 81 82 85 89 91 93 93 91 85 85 83 85 88 89 89 89 88 82 87 86 84
53 50 55 61 79 78 71 78 43 44 38 36 35 36 44 46 47 52 53 47 51 75 74 72 74 76 77 82 80 83 86 89 92 94 92 92 90 86 84 85 87 89 90 88 87 88 87 87 88
47 53 66 86 86 88 63 63 46 41 34 35 34 34 44 48 54 59 60 60 79 84 79 76 77 78 80 82 83 83 86 88 94 95 96 96 94 92 87 84 88 89 88 87 87 87 83 85 85
54 60 80 82 97 79 68 74 48 36 34 32 31 36 47 50 61 66 64 76 86 85 83 81 81 80 81 83 84 84 85 89 92 93 96 96 96 95 92 89 90 90 88 85 86 84 84 84 83
62 58 79 66 77 72 55 67 45 37 36 33 33 40 50 55 61 67 67 71 85 86 88 85 83 81 84 85 85 85 86 91 88 90 95 96 96 93 90 90 88 85 84 83 84 86 86 87 88
60 70 59 64 78 88 66 52 39 42 44 44 47 51 57 58 61 64 69 72 80 88 88 88 86 84 83 84 85 86 88 90 91 91 93 95 93 86 90 87 86 83 81 80 82 85 83 85 88
54 48 65 74 73 77 74 69 56 44 42 44 49 54 56 58 62 66 69 72 77 82 86 89 89 86 83 84 87 83 88 90 91 92 93 90 85 82 85 85 82 80 79 80 84 85 84 84 86
62 60 58 64 78 82 87 65 51 43 38 42 44 47 49 60 64 66 69 71 73 78 84 86 89 88 88 85 86 87 87 89 90 90 91 87 78 78 82 81 80 80 80 80 86 84 86 85 80
54 47 45 65 67 85 89 56 38 37 40 36 41 41 43 52 60 68 69 70 75 75 74 76 81 85 86 86 86 85 86 88 90 89 89 81 80 77 80 78 79 78 77 77 79 82 78 82 77
Wind_Speed
7 6 2 5 6 7 2 3 2 2 3 1 2 7 7 3 3 2 3 5 4 6 4 3 3 4 3 2 2 3 5 4 8 10 11 8 7 8 8 8 10 10 10 10 9 9 9 9 8
4 3 5 3 7 4 5 2 5 2 1 2 7 3 5 3 3 4 3 5 7 7 4 3 3 4 4 2 3 3 4 3 3 5 5 7 9 9 8 9 8 10 9 9 9 9 9 9 9
1 2 5 6 4 4 3 1 4 1 3 3 2 4 3 2 3 5 3 7 9 6 4 4 4 5 5 4 5 4 4 4 3 1 2 4 6 6 10 10 9 8 8 8 8 8 8 8 9
3 5 5 7 5 2 5 4 3 2 4 4 3 5 3 1 4 5 4 8 9 5 5 7 9 8 7 7 6 4 3 2 2 2 4 4 2 4 8 9 9 7 6 6 7 8 7 8 8
5 4 5 4 3 2 2 4 4 2 3 2 2 3 4 3 4 5 5 6 9 5 5 5 9 8 8 4 3 3 3 3 2 1 1 1 2 1 2 8 8 7 6 5 5 6 6 6 7
5 4 6 3 3 3 2 2 2 1 1 1 4 5 3 3 3 3 5 7 7 8 6 5 6 8 8 9 6 7 7 3 1 2 2 2 4 4 4 7 6 6 7 6 4 4 5 5 6
7 4 4 4 5 1 2 0 3 3 1 2 2 5 3 3 4 5 5 6 6 7 6 3 3 5 8 9 9 8 8 7 6 5 4 4 4 4 4 4 5 5 6 8 7 2 2 3 3
6 5 3 2 4 4 3 1 4 4 4 2 4 5 5 6 7 5 4 5 7 6 6 4 2 4 4 4 7 8 7 6 7 6 6 7 7 6 6 2 3 2 2 1 11 2 4 2 1
4 6 2 5 6 4 1 2 2 1 2 3 2 5 3 9 7 5 4 2 5 5 6 4 4 4 3 3 3 4 5 6 6 6 7 5 2 4 5 5 3 1 4 3 4 3 6 5 3
5 5 9 3 3 4 1 2 2 1 1 2 3 5 5 8 6 7 6 6 5 7 6 6 5 5 4 3 3 2 3 3 3 3 3 3 3 4 2 3 4 4 4 3 5 7 7 5 1
2 6 6 4 4 2 2 2 3 2 4 5 5 7 6 5 7 8 7 6 7 5 3 6 5 2 2 3 2 1 2 2 2 2 1 1 1 1 0 2 1 1 2 3 3 2 2 2 2
4 1 4 5 4 2 2 3 4 4 6 3 6 10 7 8 8 8 8 7 7 6 6 5 5 3 4 2 3 3 2 2 1 2 2 1 0 0 1 1 2 1 1 2 1 1 2 1 2
3 3 1 2 4 3 1 3 5 7 7 1 7 8 8 8 8 6 7 7 7 7 7 7 6 4 4 4 3 3 4 3 3 2 1 2 1 1 1 1 1 1 1 1 2 2 2 2 0
2 3 2 3 2 2 3 2 3 5 1 8 7 8 8 8 9 5 6 7 8 8 8 7 7 5 6 5 5 4 4 4 3 2 0 3 2 2 1 2 2 2 2 3 1 1 1 2 1
4 3 3 3 2 3 3 2 7 6 4 7 7 6 7 9 5 8 6 9 12 9 9 9 8 7 6 6 5 4 4 3 3 3 3 3 2 2 3 2 1 1 2 2 2 1 1 1 1
3 3 1 2 1 1 2 7 5 7 6 7 6 6 7 6 6 6 7 7 7 8 9 8 7 7 6 5 4 3 3 3 3 2 2 3 2 2 3 2 2 1 1 1 2 2 2 2 2
4 2 3 3 1 2 2 7 6 3 7 7 8 6 5 3 1 3 6 8 9 11 10 8 8 8 6 4 4 4 5 3 2 2 2 3 4 2 3 2 1 2 1 2 2 3 2 2 3
5 3 2 3 1 1 5 13 10 8 6 10 9 8 8 6 5 3 1 5 7 7 7 7 6 7 6 4 4 3 3 3 3 2 2 3 3 3 3 2 2 1 1 1 1 2 3 2 1
4 2 2 4 1 2 7 8 17 9 8 10 9 9 7 7 4 2 1 3 6 5 7 7 8 7 5 2 3 2 2 1 1 1 2 3 2 3 4 2 2 3 3 1 0 1 2 3 2
3 2 5 4 2 3 7 18 17 8 7 11 9 7 8 4 2 1 2 3 5 7 8 7 7 8 5 3 2 2 3 2 1 1 1 1 2 3 3 4 3 3 4 3 2 2 2 1 2
0 2 3 4 7 2 7 10 5 2 1 1 4 5 4 8 7 5 5 5 6 8 9 9 8 9 6 5 3 3 3 3 2 1 1 1 1 2 3 3 3 3 3 3 2 2 3 3 1
4 6 5 2 5 4 4 8 6 4 4 2 7 9 9 8 6 5 5 5 7 8 7 6 7 8 6 7 4 5 4 4 3 3 2 2 1 2 3 3 2 2 2 3 2 2 2 3 3
3 3 3 3 3 4 1 4 10 3 6 9 10 10 9 9 8 7 6 5 4 7 8 7 7 7 6 8 7 6 4 3 2 2 4 3 2 2 2 3 3 2 2 1 2 2 2 2 3
7 5 5 4 3 2 6 7 8 6 8 5 7 10 10 8 7 5 4 3 5 6 6 7 8 7 7 7 7 8 7 5 3 3 4 3 3 3 2 3 3 2 3 1 1 2 3 2 4
4 6 4 6 3 8 4 2 11 7 8 6 11 10 9 8 7 7 7 5 6 7 7 6 7 7 7 8 8 8 8 8 8 7 5 5 3 2 4 4 4 2 3 2 2 2 3 3 3
6 8 7 9 5 5 2 9 10 6 9 5 7 9 8 8 7 7 7 6 6 6 6 6 6 6 6 6 7 6 7 4 6 6 5 5 4 4 5 4 4 4 4 3 2 1 2 3 3
7 6 3 0 1 2 7 8 9 3 2 3 8 9 9 8 8 8 6 6 6 6 7 7 7 7 7 7 6 7 6 6 6 7 5 4 4 4 6 5 5 4 4 3 3 2 2 2 2
4 5 4 2 3 8 6 6 8 6 9 7 8 10 9 8 7 7 8 8 6 6 6 6 6 7 7 7 6 6 6 6 6 5 7 6 5 6 6 5 5 4 3 4 3 2 1 2 1
5 4 3 3 6 6 4 9 9 10 12 15 11 9 10 10 10 10 7 7 7 6 6 7 7 7 7 7 6 6 6 6 5 5 5 6 5 6 6 5 5 5 4 2 3 3 3 2 2
4 12 12 7 8 5 2 22 5 8 12 14 13 12 11 11 10 8 8 7 7 7 8 8 7 7 7 6 5 6 5 5 6 6 6 6 5 5 6 5 5 4 5 3 3 3 3 2 3
Wind_Direction
331 320 82 41 58 65 15 357 332 32 61 283 44 103 113 64 54 187 252 17 46 116 115 109 110 122 123 125 119 116 115 134 146 144 144 137 134 135 117 113 114 106 99 91 79 70 66 55 48
343 348 43 85 79 66 286 351 96 40 125 84 87 87 45 63 84 125 70 56 77 105 82 107 131 128 112 96 68 47 69 93 141 148 151 149 148 142 132 122 109 100 102 97 83 67 58 51 41
0 56 76 85 102 138 175 177 176 163 59 89 69 75 102 119 103 143 203 102 86 81 77 65 64 68 75 73 68 73 76 67 57 62 189 166 147 158 143 129 118 112 111 107 93 73 56 47 36
63 13 33 79 93 348 160 200 210 100 11 43 123 73 62 54 141 166 130 121 101 97 66 62 61 66 82 83 91 78 53 100 94 140 168 201 196 205 147 119 115 108 105 102 99 83 59 35 27
39 59 60 74 68 106 186 198 190 136 164 179 135 176 102 43 103 122 107 137 114 94 88 74 73 68 65 90 83 45 27 44 69 49 140 168 153 156 197 119 128 125 116 101 91 94 79 44 16
45 92 60 117 134 173 280 303 92 99 124 270 102 105 159 141 120 151 113 111 125 133 104 84 73 71 71 68 86 75 67 102 105 141 116 96 147 148 153 143 143 143 137 122 87 70 79 61 22
104 79 138 129 156 86 236 300 115 137 188 230 148 114 157 168 173 161 153 110 137 126 115 87 57 68 74 77 68 69 72 72 84 100 108 107 119 157 163 157 170 180 175 145 111 51 46 91 50
107 91 94 60 193 201 238 161 168 156 231 304 133 170 207 197 177 138 102 126 106 102 110 129 108 92 74 84 88 89 87 77 67 72 75 57 55 68 71 77 171 165 337 40 113 330 288 321 43
109 66 135 184 176 199 270 154 329 63 68 333 44 151 222 131 131 119 111 87 128 124 141 141 124 124 127 111 110 102 98 84 76 60 50 80 62 52 44 64 52 160 178 138 41 277 266 265 301
86 111 203 197 169 178 208 174 257 164 14 281 40 38 98 130 145 151 168 170 170 176 179 148 155 148 152 134 129 109 81 66 64 67 72 72 82 90 75 43 39 44 17 319 169 195 243 230 299
143 165 164 191 170 166 216 266 313 183 245 208 183 171 168 167 179 179 198 192 188 197 158 148 152 142 146 141 156 141 110 78 45 61 93 131 105 97 358 355 15 54 34 319 328 349 206 216 162
91 59 157 177 158 134 197 302 308 205 222 218 198 181 171 188 195 202 200 200 170 147 142 147 138 133 155 138 156 186 151 111 44 21 38 72 56 33 72 136 28 36 46 308 102 17 331 244 144
92 183 202 162 165 199 124 256 242 251 233 211 157 170 188 197 211 223 208 181 154 148 163 160 148 145 145 132 133 137 134 143 147 93 26 165 193 178 120 114 78 38 7 313 314 357 326 285 256
124 128 155 233 232 237 191 242 38 272 192 186 182 199 209 209 209 208 183 178 168 161 165 159 155 154 145 147 150 146 156 143 132 123 90 79 102 123 109 59 20 35 341 331 311 156 205 231 230
107 101 349 241 244 256 160 243 220 234 177 184 209 234 241 236 221 220 206 180 176 178 162 168 155 153 147 149 154 152 154 135 129 133 110 113 106 136 133 128 99 324 314 309 339 330 116 82 31
66 56 21 239 209 268 45 264 266 206 175 212 230 238 243 253 241 221 209 191 178 159 173 164 152 154 162 158 139 115 116 119 120 115 126 108 105 145 124 140 162 156 359 46 42 1 55 53 43
13 225 214 300 333 337 182 274 287 182 187 238 241 208 205 208 258 200 210 193 174 176 165 165 153 157 153 137 104 95 99 100 110 93 74 71 64 75 134 131 32 31 29 32 12 29 44 50 10
207 213 285 250 312 298 269 262 268 270 282 243 228 208 200 181 192 216 270 194 173 172 166 151 148 142 127 106 91 70 80 66 67 85 97 93 65 76 109 114 84 93 94 43 54 91 39 65 23
135 128 245 258 178 257 249 267 268 249 235 234 223 202 204 199 200 171 157 100 138 142 150 157 146 145 134 132 119 89 128 90 44 63 92 86 88 87 109 113 92 84 111 110 55 114 111 11 14
52 36 292 296 24 354 316 290 283 248 236 222 198 183 202 186 187 321 21 92 160 171 170 161 162 158 164 148 165 151 159 193 162 125 79 109 96 110 129 130 115 133 121 98 76 103 120 122 28
326 191 277 269 330 309 332 290 306 290 298 202 137 179 189 186 196 211 219 198 179 177 182 176 172 166 168 163 112 78 67 48 56 263 266 272 122 104 108 117 113 123 127 135 130 136 157 149 352
199 176 154 118 59 253 28 286 297 321 286 162 176 191 192 188 196 205 221 241 191 196 174 174 165 169 170 156 146 157 172 180 218 192 181 209 198 142 123 118 121 124 122 128 146 140 151 134 169
227 76 68 45 79 40 250 95 273 334 265 228 217 208 206 201 195 204 220 237 196 158 173 179 173 174 160 165 170 176 187 210 189 179 176 196 205 171 142 139 136 129 120 124 126 102 98 126 126
138 82 50 56 82 356 221 161 275 203 212 216 208 206 198 194 199 197 214 178 161 163 158 169 175 188 176 174 181 189 201 199 187 194 198 204 205 206 179 149 143 147 133 142 130 105 93 88 106
100 82 323 337 2 230 141 135 249 274 245 223 207 190 191 191 180 190 194 182 175 174 176 176 180 193 189 187 191 196 202 197 199 193 192 188 191 210 205 172 169 173 156 157 161 131 117 113 109
176 164 173 228 211 252 144 232 243 235 268 258 214 171 171 186 190 198 203 196 190 180 182 189 192 210 204 210 218 214 210 200 206 200 191 197 188 191 189 182 175 170 162 155 159 141 129 121 122
188 187 193 76 29 34 228 286 296 246 278 141 159 154 184 196 196 196 198 199 201 198 208 205 206 214 214 218 218 226 216 206 207 208 201 199 188 179 174 177 172 175 165 157 165 170 148 136 131
171 165 94 15 261 261 269 262 236 235 223 192 186 188 194 202 197 196 199 200 202 204 212 217 221 219 223 223 219 224 221 210 208 193 201 196 180 167 158 171 171 169 179 149 169 161 165 154 186
153 206 219 156 164 200 287 247 205 215 197 200 198 195 196 200 202 201 200 197 197 193 202 215 215 220 232 226 223 216 220 208 194 192 187 177 155 154 156 165 168 166 167 173 169 199 131 172 230
235 198 175 196 227 235 170 263 197 215 198 189 195 195 208 207 206 200 194 195 193 202 208 211 214 214 222 229 217 209 194 179 176 181 170 160 154 156 152 161 163 175 139 154 196 188 120 186 180